Miscellaneous Local Product
Issued by NWS North Platte, NE

Home | Current Version | Previous Version | Graphics & Text | Print | Product List | Glossary On
Versions: 1 2 3 4 5 6 7 8 9 10 11 12 13 14 15 16 17 18 19 20 21 22 23 24 25 26 27 28 29 30 31 32 33 34 35 36 37 38 39 40 41 42 43 44 45 46 47 48 49 50
450
AXUS43 KLBF 200310
MISLBF


WESTERN AND NORTH CENTRAL NEBRASKA HOURLY WEATHER ROUNDUP
NATIONAL WEATHER SERVICE NORTH PLATTE NE
900 PM CST SUN FEB 19 2017

NOTE: "FAIR" INDICATES FEW OR NO CLOUDS BELOW 12,000 FEET WITH NO
SIGNIFICANT WEATHER AND/OR OBSTRUCTIONS TO VISIBILITY.

NOTE: STATIONS NOT REPORTING VARIABLES SUCH AS SKY/WEATHER OR
PRESSURE ARE PROVIDED BY RAWS AND APRS NETWORKS AND ARE NOT UNDER
NATIONAL WEATHER SERVICE QUALITY CONTROL.

...OBSERVATIONS IN AND NEAR THE EASTERN PANHANDLE OF NEBRASKA...

CITY           SKY/WX    TMP DP  RH WIND       PRES   REMARKS
PINE RIDGE     CLOUDY    50  36  58 NW3       29.58R
CHADRON        CLOUDY    49  38  65 S6        29.58R
ALLIANCE       CLOUDY    52  37  56 S15       29.57F
SIDNEY         CLOUDY    54  29  38 S13       29.61R
CRESCENT LAKE    N/A     56  35  46 S10G20      N/A
$$

...OBSERVATIONS IN NORTHERN NEBRASKA AND FAR SOUTHERN SOUTH DAKOTA...

CITY           SKY/WX    TMP DP  RH WIND       PRES   REMARKS
WINNER         MOCLDY    63  45  51 SW13      29.59R
VALENTINE      CLOUDY    59  42  53 S8        29.61R
THEDFORD       PTCLDY    59  47  64 SE13      29.63S
AINSWORTH      CLOUDY    58  48  67 S15       29.62S
O`NEILL        CLOUDY    58  50  73 S17       29.69R
ORD            MOCLDY    56  47  71 S15       29.69S
BROKEN BOW     PTCLDY    58  50  75 S17G25    29.68R
VALENTINE NWR    N/A     57  43  60 S13         N/A
HALSEY           N/A     57  46  68 SE8         N/A
CHAMBERS         N/A     55  49  79 S8          N/A
EWING            N/A     56  50  80 S8G15       N/A
$$

...OBSERVATIONS IN SOUTHWEST NEBRASKA AND FAR NORTHEAST COLORADO...

CITY           SKY/WX    TMP DP  RH WIND       PRES   REMARKS
HOLYOKE        FAIR      61  32  33 S18G26    29.61R
IMPERIAL       CLOUDY    63  27  25 S24G33    29.58F
OGALLALA       CLOUDY    63  35  36 S17G23    29.60R
NORTH PLATTE   MOCLDY    62  48  60 S14G23    29.62F
MCCOOK         PTCLDY    61  50  67 S17G28    29.68R
LEXINGTON      CLOUDY    58  48  70 S18G24    29.70R
STAPLETON        N/A     55  47  76 CALM        N/A
GOTHENBURG       N/A     59  46  63 SE14        N/A
CALLAWAY         N/A     56  48  73 S20         N/A
$$

...OBSERVATIONS IN CENTRAL LINCOLN COUNTY AREA...

CITY           SKY/WX    TMP DP  RH WIND       PRES   REMARKS
N.P. AIRPORT   MOCLDY    62  48  60 S14G23    29.62F
N.P. DOWNTOWN    N/A     62  49  63 SE9G23      N/A
N.P. SOUTHEAST   N/A     61  49  65 S12G20      N/A
N.P. HILLCREST   N/A     61  49  65 SE18G29     N/A
$$

...SOME OBSERVATIONS FROM AROUND THE REGION...

CITY           SKY/WX    TMP DP  RH WIND       PRES   REMARKS
LARAMIE        CLOUDY    33  32  96 N10       29.73R WCI  25
CHEYENNE       LGT RAIN  44  34  67 NW14G24   29.68R
DENVER         CLOUDY    51  32  48 N25G32    29.62R
AKRON          CLOUDY    54  27  35 S18G30    29.61R
SCOTTSBLUFF    CLOUDY    51  33  50 NW9       29.61R
RAPID CITY     CLOUDY    53  34  48 SW6       29.56R
BISMARCK       CLOUDY    37  34  89 E10       29.52F WCI  30
PIERRE         CLOUDY    56  38  50 SE13      29.53S
SIOUX FALLS    CLOUDY    58  49  72 S16G24    29.70S
OMAHA          PTCLDY    62  52  69 S14       29.82R
GRAND ISLAND   MOCLDY    54  50  86 S17G25    29.76S
KANSAS CITY    MOCLDY    59  52  77 S9        29.90R
WICHITA        CLOUDY    63  58  83 S14       29.83F
OKLAHOMA CITY  LGT RAIN  64  62  93 SE12      29.81S
DALLAS         MOCLDY    71  66  84 SE16      29.81S
AMARILLO       PTCLDY    50  41  71 S9        29.83S
DODGE CITY     PTCLDY    55  49  80 S7        29.79R
HAYS           PTCLDY    57  53  86 S17       29.77S
GOODLAND       PTCLDY    55  34  45 S18       29.66R
$$




USA.gov is the U.S. government's official web portal to all federal, state and local government web resources and services.